IU2RPR-3 Weather Reports


time (UTC)temp
C
wind
direction
speed
KPH
gust
KPH
rain 1hr
cm
rain 24hr
cm
rain mn
cm
humidity
%
barometer
mb
20260506032017 13 0.0 0.0 0.00 0.00 0.00 99 1012.9
20260506025015 13 0.0 0.0 0.00 0.00 0.00 99 1013.5
20260506022014 13 0.0 0.0 0.00 0.00 0.00 99 1013.8
20260506015013 13 0.0 0.0 0.00 0.00 0.00 99 1013.9
20260506012012 13 0.0 0.0 0.00 0.00 0.00 99 1014.0
20260506005011 13 0.0 0.0 0.00 0.00 0.00 99 1014.4
20260506002009 13 0.0 0.0 0.00 0.00 0.00 99 1014.6
20260505235008 13 0.0 0.0 0.00 0.00 0.00 98 1015.0
20260505232007 13 0.0 0.0 0.00 0.00 0.00 98 1014.9
20260505225005 13 0.0 0.0 0.00 0.00 0.00 99 1015.1
20260505222004 13 0.0 0.0 0.00 0.00 0.00 99 1015.3
20260505215003 13 0.0 0.0 0.00 0.00 0.00 99 1015.6
20260505212002 13 0.0 0.0 0.00 0.00 0.00 96 1015.9
20260505205000 14 0.0 0.0 0.00 0.00 0.00 92 1016.0
20260505201959 13 0.0 0.0 0.00 0.00 0.00 95 1015.9
20260505194958 13 0.0 0.0 0.00 0.00 0.00 95 1015.9
20260505191957 14 0.0 0.0 0.00 0.00 0.00 95 1015.8
20260505185253 13 0.0 0.0 0.00 0.00 0.00 94 1015.6
20260505182251 14 0.0 0.0 0.00 0.00 0.00 95 1015.6
20260505175250 14 0.0 0.0 0.00 0.00 0.00 92 1015.5
20260505172250 14 0.0 0.0 0.00 0.00 0.00 92 1015.5
20260505165248 14 0.0 0.0 0.00 0.00 0.00 93 1015.5
20260505162246 14 0.0 0.0 0.00 0.00 0.00 91 1015.6
20260505152244 14 0.0 0.0 0.00 0.00 0.00 93 1015.9
20260505122235 13 0.0 0.0 0.00 0.00 0.00 97 1016.6
20260505115234 14 0.0 0.0 0.00 0.00 0.00 93 1016.5
20260505112233 14 0.0 0.0 0.00 0.00 0.00 92 1016.5
20260505095229 15 0.0 0.0 0.00 0.00 0.00 85 1016.1
20260505092228 15 0.0 0.0 0.00 0.00 0.00 86 1015.9
20260505085227 15 0.0 0.0 0.00 0.00 0.00 88 1015.7
20260505082225 14 0.0 0.0 0.00 0.00 0.00 87 1016.1
20260505075224 14 0.0 0.0 0.00 0.00 0.00 83 1016.3
20260505072223 15 0.0 0.0 0.00 0.00 0.00 78 1016.4
20260505065222 15 0.0 0.0 0.00 0.00 0.00 74 1016.1
20260505062221 15 0.0 0.0 0.00 0.00 0.00 71 1015.6
20260505055219 16 0.0 0.0 0.00 0.00 0.00 64 1015.5
20260505052218 15 0.0 0.0 0.00 0.00 0.00 58 1015.2
20260505035211 14 0.0 0.0 0.00 0.00 0.00 61 1015.2